[[{"header":{"parameterUnit":"m.s-1","parameterCategory":1,"la1":30.2991,"la2":30.254,"lo1":-89.0895,"lo2":-89.0444,"dy":0.0017,"dx":0.0017,"nx":28,"ny":28,"refTime":"2024-05-02T21:00:00:Z","depth":0,"parameterNumber":2,"parameterNumberName":"U-component_of_WINDS"},"data":[0,0,0,0,0,0,0,0,0,0,0,0,0,0,0,0,0,0,0,0,0,0,0,0,0,0,0,0,0,0,0,0,0,0,0,0,0,0,0,0,0,0,0,0,0,0,0,0,0,0,0,0,0,0,0,0,0,0,-2.2566,-2.2566,0,-2.2529,-2.2529,-2.2529,-2.2462,-2.2461,-2.2459,-2.2458,-2.2421,-2.2421,-2.2421,0,0,0,0,0,0,0,0,0,0,0,0,0,-2.258,-2.258,-2.2566,-2.2566,-2.2565,-2.253,-2.2529,-2.2529,-2.2462,-2.246,-2.2459,-2.2457,-2.2421,-2.2421,-2.2421,0,0,0,0,0,0,0,0,0,0,0,0,0,-2.2562,-2.258,-2.2566,-2.2528,-2.2524,-2.253,-2.2529,-2.2528,-2.2462,-2.246,-2.2459,-2.2457,-2.2421,-2.2421,-2.2421,-2.2461,0,0,-2.2422,-2.2422,0,0,0,0,0,0,0,0,-2.2563,-2.2561,-2.2534,-2.253,-2.2526,-2.2498,-2.252,-2.2506,-2.2463,-2.2486,-2.2458,-2.2456,-2.2448,-2.2446,-2.2443,-2.246,-2.2458,-2.2422,-2.2422,-2.2422,-2.2422,0,0,0,0,0,0,0,-2.2564,-2.2562,-2.2552,-2.2534,-2.2529,-2.2513,-2.2508,-2.2517,-2.2478,-2.2484,-2.2479,-2.2475,-2.2446,-2.2443,-2.2442,-2.2458,-2.2422,-2.2422,-2.2423,-2.2423,-2.2506,-2.2508,0,0,0,0,0,0,-2.2571,-2.2564,-2.2553,-2.255,-2.254,-2.2514,-2.2509,-2.2509,-2.2478,-2.2471,-2.2477,-2.2472,-2.2444,-2.2442,-2.244,-2.2486,-2.2422,-2.2423,-2.2423,-2.2504,-2.2507,-2.2509,0,0,0,0,0,0,-2.2571,-2.2571,-2.2554,-2.2556,-2.2553,-2.2516,-2.2517,-2.2509,-2.2507,-2.2473,-2.2466,-2.2482,-2.2442,-2.244,-2.2457,-2.2483,-2.2423,-2.2423,-2.2502,-2.2505,-2.2508,-2.2577,0,0,0,0,0,0,-2.2572,-2.2571,-2.2586,-2.2557,-2.2553,-2.2571,-2.2518,-2.251,-2.2508,-2.2501,-2.2475,-2.2469,-2.244,-2.2457,-2.2457,-2.2483,-2.2423,-2.2499,-2.2503,-2.2507,-2.2572,-2.2582,-2.259,0,0,0,0,0,-2.2573,-2.2606,-2.2587,-2.2586,-2.257,-2.2573,-2.257,-2.2537,-2.251,-2.2524,-2.2503,-2.247,-2.2481,-2.2459,-2.2459,-2.2485,-2.2497,-2.2502,-2.2507,-2.2568,-2.258,-2.259,0,0,0,0,0,0,-2.2639,-2.2602,-2.2579,-2.2604,-2.2592,-2.2561,-2.2578,-2.255,-2.2545,-2.254,-2.2498,-2.2493,-2.2516,-2.2502,-2.2478,-2.2523,-2.2484,-2.2489,-2.2531,-2.2542,-2.2551,-2.2553,-2.2424,0,0,0,0,0,-2.2656,-2.2661,-2.2629,-2.2654,-2.2649,-2.2615,-2.2615,-2.259,-2.2576,-2.2571,-2.255,-2.2538,-2.2538,-2.2539,-2.2538,-2.257,-2.2564,-2.2588,-2.2597,-2.2605,-2.2609,-2.2626,-2.2636,-2.2524,-2.2524,-2.2524,0,0,-2.2692,-2.2673,-2.2678,-2.2667,-2.2654,-2.2661,-2.2611,-2.262,-2.2624,-2.2572,-2.2586,-2.2572,-2.2555,-2.258,-2.259,-2.2569,-2.2639,-2.2611,-2.2617,-2.2617,-2.2632,-2.2642,-2.2652,-2.2527,-2.2527,-2.2526,0,0,-2.2761,-2.2747,-2.2766,-2.2755,-2.2738,-2.2715,-2.272,-2.2694,-2.2682,-2.2696,-2.2657,-2.2663,-2.2664,-2.2654,-2.265,-2.2717,-2.2687,-2.2718,-2.2765,-2.2782,-2.2791,-2.2799,-2.2822,-2.2832,-2.2723,-2.2723,-2.2723,0,-2.2808,-2.2815,-2.278,-2.2791,-2.2788,-2.2741,-2.2761,-2.2753,-2.2736,-2.2734,-2.2712,-2.2714,-2.27,-2.2722,-2.2739,-2.2737,-2.2741,-2.272,-2.2793,-2.28,-2.2806,-2.2829,-2.2838,-2.2727,-2.2726,-2.2726,-2.2726,0,-2.2874,-2.288,-2.2898,-2.2883,-2.2882,-2.2898,-2.2865,-2.2868,-2.2845,-2.2825,-2.2841,-2.2822,-2.2817,-2.2821,-2.2797,-2.284,-2.2828,-2.28,-2.276,-2.2822,-2.2842,-2.285,-2.2732,-2.2731,-2.273,-2.2729,0,0,-2.2981,-2.2947,-2.2954,-2.2947,-2.2926,-2.293,-2.2945,-2.2939,-2.2943,-2.2934,-2.2945,-2.2948,-2.2923,-2.2917,-2.2893,-2.2908,-2.2963,-2.2878,-2.2877,-2.2894,-2.3009,-2.303,-2.304,-2.2943,-2.2945,-2.2946,-2.301,0,-2.3044,-2.3066,-2.3035,-2.3064,-2.307,-2.3027,-2.304,-2.3028,-2.3011,-2.3014,-2.2995,-2.2998,-2.2964,-2.296,-2.2973,-2.2953,-2.2985,-2.2949,-2.2953,-2.2954,-2.2957,-2.3051,-2.3072,-2.3133,-2.3018,-2.3019,-2.302,0,-2.312,-2.3114,-2.3144,-2.3121,-2.3123,-2.3135,-2.3128,-2.3131,-2.3118,-2.3104,-2.31,-2.3071,-2.3084,-2.3047,-2.3065,-2.3041,-2.3041,-2.3032,-2.3034,-2.3032,-2.299,-2.3051,-2.3152,-2.3161,-2.3033,-2.3032,-2.3031,0,-2.3194,-2.3195,-2.3212,-2.3208,-2.3182,-2.3192,-2.3181,-2.3166,-2.3165,-2.316,-2.316,-2.3156,-2.3154,-2.3153,-2.3124,-2.31,-2.3146,-2.3106,-2.3135,-2.3136,-2.3145,-2.3145,-2.3248,-2.3148,-2.3148,-2.3147,-2.3147,0,-2.3267,-2.3287,-2.3246,-2.3256,-2.3278,-2.3243,-2.3266,-2.3251,-2.3238,-2.3246,-2.321,-2.3218,-2.318,-2.3185,-2.3163,-2.3181,-2.3181,-2.317,-2.3164,-2.3173,-2.3174,-2.3172,-2.3166,-2.315,-2.3149,-2.3149,-2.3148,0,-2.3353,-2.3326,-2.3343,-2.3318,-2.3312,-2.3329,-2.3307,-2.3317,-2.3298,-2.3309,-2.3309,-2.328,-2.3283,-2.3255,-2.3254,-2.3239,-2.3268,-2.3254,-2.3272,-2.3267,-2.3298,-2.3295,-2.3402,-2.3414,-2.3307,-2.3308,-2.3309,0,-2.34,-2.3415,-2.3392,-2.3394,-2.3386,-2.3391,-2.339,-2.3358,-2.3359,-2.3346,-2.3357,-2.3358,-2.3356,-2.3365,-2.3343,-2.3342,-2.3328,-2.3366,-2.3327,-2.3336,-2.3328,-2.3327,-2.3328,-2.3373,-2.3374,-2.3375,-2.3376,0,-2.3488,-2.3474,-2.3475,-2.3471,-2.3472,-2.3468,-2.3461,-2.3465,-2.343,-2.3434,-2.3437,-2.3436,-2.3435,-2.3436,-2.3431,-2.3421,-2.3393,-2.3389,-2.3395,-2.3404,-2.3413,-2.3408,-2.3293,-2.3386,-2.3385,-2.3384,-2.3384,-2.3383,-2.3555,-2.3566,-2.3552,-2.3554,-2.3546,-2.3541,-2.3549,-2.3532,-2.3534,-2.353,-2.3512,-2.3519,-2.3506,-2.3497,-2.349,-2.3495,-2.3477,-2.3487,-2.3489,-2.3492,-2.3497,-2.3414,-2.3494,-2.3494,-2.3494,-2.3494,-2.3493,0,-2.364,-2.3629,-2.3632,-2.3624,-2.3626,-2.3601,-2.3592,-2.3596,-2.3602,-2.3593,-2.3593,-2.3598,-2.36,-2.358,-2.3579,-2.3587,-2.3574,-2.3588,-2.3586,-2.3585,-2.3513,-2.3508,-2.3598,-2.3598,-2.3598,-2.3598,-2.3598,-2.3598,-2.3684,-2.3702,-2.3687,-2.3701,-2.369,-2.3696,-2.3694,-2.3689,-2.3682,-2.3689,-2.369,-2.3677,-2.3664,-2.3662,-2.3663,-2.3657,-2.3658,-2.3676,-2.3666,-2.36,-2.3589,-2.358,-2.3574,-2.3677,-2.3677,-2.3736,-2.3737,-2.3737]},{"header":{"parameterUnit":"m.s-1","parameterCategory":1,"la1":30.2991,"la2":30.254,"lo1":-89.0895,"lo2":-89.0444,"dy":0.0017,"dx":0.0017,"nx":28,"ny":28,"refTime":"2024-05-02T21:00:00:Z","depth":0,"parameterNumber":3,"parameterNumberName":"V-component_of_WINDS"},"data":[0,0,0,0,0,0,0,0,0,0,0,0,0,0,0,0,0,0,0,0,0,0,0,0,0,0,0,0,0,0,0,0,0,0,0,0,0,0,0,0,0,0,0,0,0,0,0,0,0,0,0,0,0,0,0,0,0,0,1.6867,1.6867,0,1.6825,1.6825,1.6824,1.6781,1.678,1.678,1.6779,1.6734,1.6733,1.6733,0,0,0,0,0,0,0,0,0,0,0,0,0,1.6909,1.6908,1.6867,1.6867,1.6866,1.6825,1.6825,1.6824,1.6781,1.678,1.678,1.6779,1.6734,1.6733,1.6733,0,0,0,0,0,0,0,0,0,0,0,0,0,1.6881,1.6908,1.6867,1.684,1.6837,1.6825,1.6825,1.6824,1.6781,1.678,1.678,1.6779,1.6734,1.6733,1.6732,1.6744,0,0,1.6729,1.6729,0,0,0,0,0,0,0,0,1.6883,1.6879,1.6844,1.6842,1.6838,1.6808,1.6823,1.6797,1.6782,1.6802,1.6779,1.6778,1.6759,1.6756,1.675,1.6742,1.674,1.6729,1.6729,1.6728,1.6728,0,0,0,0,0,0,0,1.6885,1.6881,1.685,1.6844,1.684,1.6829,1.6824,1.6818,1.6786,1.68,1.6797,1.6793,1.6757,1.6751,1.6748,1.6739,1.6729,1.6728,1.6728,1.6727,1.674,1.6741,0,0,0,0,0,0,1.6891,1.6883,1.6852,1.6849,1.6859,1.6829,1.6824,1.6818,1.6786,1.678,1.6794,1.6791,1.6753,1.675,1.6747,1.6759,1.6728,1.6727,1.6727,1.6739,1.674,1.6741,0,0,0,0,0,0,1.6892,1.6889,1.6853,1.6865,1.686,1.6829,1.6824,1.6818,1.6812,1.6781,1.6775,1.6793,1.6752,1.6748,1.6745,1.6756,1.6727,1.6726,1.6738,1.6739,1.674,1.6782,0,0,0,0,0,0,1.6893,1.6889,1.6893,1.6866,1.6859,1.6853,1.6824,1.6818,1.681,1.6807,1.6779,1.6773,1.6751,1.6747,1.6744,1.6755,1.6725,1.6737,1.6738,1.674,1.678,1.6785,1.6789,0,0,0,0,0,1.6895,1.6906,1.6894,1.689,1.6864,1.6854,1.685,1.6825,1.6811,1.6815,1.6796,1.6774,1.6756,1.6747,1.6744,1.6754,1.6736,1.6738,1.674,1.6778,1.6784,1.6789,0,0,0,0,0,0,1.6934,1.6902,1.6888,1.689,1.6876,1.6847,1.6851,1.6833,1.682,1.6817,1.6786,1.678,1.6781,1.6767,1.6758,1.6764,1.6743,1.6744,1.6773,1.6779,1.6783,1.6786,1.6724,0,0,0,0,0,1.6944,1.6939,1.691,1.6915,1.6909,1.6881,1.6876,1.6858,1.6841,1.6834,1.6814,1.6798,1.6789,1.6783,1.6772,1.6778,1.6772,1.6783,1.6788,1.6792,1.6794,1.6797,1.6802,1.6748,1.6748,1.6748,0,0,1.6962,1.6944,1.6942,1.6923,1.6909,1.6904,1.6876,1.6872,1.6868,1.6833,1.683,1.6815,1.6795,1.6797,1.6796,1.6785,1.6807,1.6795,1.6799,1.6797,1.6799,1.6804,1.6809,1.6749,1.6749,1.6749,0,0,1.6993,1.6979,1.6982,1.6969,1.695,1.6932,1.6933,1.6907,1.6896,1.6893,1.6867,1.6862,1.6846,1.6833,1.6825,1.6854,1.6833,1.6851,1.6876,1.6879,1.6883,1.6887,1.6897,1.6901,1.6853,1.6853,1.6853,0,1.7018,1.7011,1.6985,1.6984,1.6976,1.6946,1.6949,1.6938,1.6915,1.691,1.6898,1.6879,1.6863,1.6862,1.687,1.6864,1.6864,1.6853,1.6885,1.6888,1.6891,1.6901,1.6905,1.6855,1.6855,1.6855,1.6854,0,1.7043,1.7038,1.7043,1.7024,1.7017,1.7017,1.6992,1.6988,1.6971,1.6955,1.6952,1.6933,1.6918,1.6917,1.69,1.6914,1.6907,1.6891,1.6869,1.6899,1.6907,1.6911,1.6858,1.6857,1.6857,1.6856,0,0,1.7096,1.7064,1.7066,1.7058,1.7035,1.7031,1.703,1.7017,1.7015,1.7001,1.7,1.6988,1.6973,1.6963,1.6945,1.6948,1.6973,1.6931,1.693,1.6939,1.6987,1.7,1.7005,1.696,1.6961,1.6961,1.6989,0,1.7123,1.7121,1.7099,1.7103,1.7099,1.7071,1.7071,1.7057,1.7042,1.7036,1.7019,1.7011,1.6992,1.6986,1.6988,1.6969,1.6982,1.6967,1.6958,1.6958,1.6963,1.7009,1.7022,1.7049,1.6992,1.6993,1.6993,0,1.7154,1.7143,1.7147,1.7126,1.7123,1.7123,1.7111,1.7105,1.7089,1.7078,1.7069,1.7049,1.7047,1.7027,1.7024,1.7015,1.701,1.7,1.7001,1.6998,1.6977,1.7007,1.7057,1.7061,1.6998,1.6998,1.6997,0,1.7192,1.7179,1.718,1.7174,1.7148,1.7149,1.7139,1.7122,1.7116,1.7105,1.7101,1.7089,1.7083,1.7075,1.7052,1.704,1.7052,1.703,1.7042,1.7043,1.7045,1.7045,1.7094,1.7043,1.7043,1.7043,1.7043,0,1.7224,1.7228,1.7197,1.7198,1.7201,1.7177,1.718,1.7167,1.7153,1.715,1.7126,1.7124,1.7094,1.7089,1.7072,1.7072,1.7069,1.706,1.7055,1.7062,1.7063,1.7058,1.7055,1.7044,1.7044,1.7044,1.7043,0,1.7267,1.7247,1.7246,1.7223,1.7218,1.7221,1.7201,1.7201,1.7186,1.7183,1.7181,1.7156,1.7149,1.7126,1.7112,1.7101,1.7106,1.7097,1.7112,1.7109,1.7123,1.7122,1.7169,1.7175,1.7121,1.7121,1.7122,0,1.7289,1.7291,1.7269,1.7266,1.7257,1.7252,1.7247,1.7223,1.7218,1.7201,1.7203,1.7194,1.7186,1.7176,1.7156,1.7146,1.7137,1.7154,1.7135,1.7142,1.7137,1.7137,1.7137,1.7158,1.7159,1.7159,1.716,0,1.7329,1.732,1.7313,1.7304,1.7298,1.7289,1.7279,1.7278,1.7251,1.7247,1.724,1.7234,1.7221,1.7213,1.72,1.7189,1.717,1.7167,1.7169,1.7175,1.7184,1.7179,1.7123,1.7165,1.7165,1.7164,1.7164,1.7164,1.7362,1.7363,1.7348,1.7342,1.7332,1.7324,1.7323,1.7308,1.7302,1.729,1.7277,1.7272,1.7257,1.7238,1.7228,1.7224,1.7213,1.7217,1.7217,1.7218,1.7222,1.7185,1.7221,1.7221,1.7221,1.7221,1.7221,0,1.7401,1.7391,1.7386,1.7373,1.7368,1.7352,1.7341,1.7338,1.7334,1.7322,1.7315,1.7307,1.7299,1.728,1.7271,1.7271,1.7262,1.7269,1.7268,1.7266,1.7231,1.723,1.7277,1.7276,1.7276,1.7276,1.7276,1.7276,1.7421,1.7423,1.7412,1.7408,1.7398,1.7393,1.7388,1.738,1.737,1.7364,1.7357,1.7346,1.7331,1.732,1.7313,1.7307,1.7305,1.7315,1.7307,1.7274,1.7269,1.7264,1.7262,1.7314,1.7315,1.7342,1.7342,1.7342]}]]